User: anonymous   Login
Location: Smithers
(54.7670°N, 127.1670°W)
Time: 23:47:53
(UTC-07:00)
Language:

ERBS - Orbit

View from above orbital plane
View from above orbital plane
View from above satellite
View from above satellite

Ground track
Ground track

The orbit data is extracted from the following two-line orbital elements,

1 15354U 84108B   18113.70025845  .00002782  00000-0  65089-4 0  9995
2 15354  57.0072 239.3528 0010096  10.3410 349.7852 15.45708980846180
Epoch (UTC): 23 April 2018 16:48:22
Eccentricity: 0.0010096
inclination: 57.0072°
perigee height: 422 km
apogee height: 436 km
right ascension of ascending node: 239.3528°
argument of perigee: 10.3410°
revolutions per day: 15.45708980
mean anomaly at epoch: 349.7852°
orbit number at epoch: 84618

The dashed part of the orbit path shows where the satellite is in the earth's shadow,  

DLR